Location: New Plymouth
(39.0670°S, 174.0830°E)
Time: 10:35:38
(UTC+12:00)

Cosmos 1455 - Pass Details

Date: 24 January 2019
Orbit: 499 x 525 km, 82.5° (Epoch: 19 April)

Event Time Altitude Azimuth Distance (km) Brightness Sun altitude
Rises 21:18:02 0° 331° (NNW) 2,655 5.8 -6.3°
Reaches altitude 10° 21:20:20 10° 320° (NW) 1,777 5.0 -6.6°
Maximum altitude 21:23:49 30° 257° (WSW) 973 4.5 -7.2°
Drops below altitude 10° 21:27:21 10° 194° (SSW) 1,802 5.7 -7.8°
Sets 21:29:43 0° 183° (S) 2,700 6.4 -8.2°
